SCP
0 0 0 0 0 0 0 0 0 0 0 0 0 0 0 0 0 0 0 0 0 0
0 0 0 0 0 0 0 0 0 0 0 0 0 0 0 0 0 0 0 0 0 0
0 0 0 0 0 0 0 0 0 0 0 0 0 0 0 0 0 0 0 0 0 0
0 0 0 0 0 0 0 0 0 0 0 0 0 0 0 0 0 0 0 0 0 0
0 0 0 0 0 0 0 0 0 0 0 0 0 0 0 0 0 0 0 0 0 0
0 0 0 0 0 0 0 0 0 0 0 0 0 0 0 0 0 0 0 0 0 0
0 0 0 0 0 0 0 0 0 0 0 0 0 0 0 0 0 0 0 0 0 0
0 0 0 0 0 0 0 0 0 0 0 0 0 0 0 0 0 0 0 0 0 0
0 0 0 0 0 0 0 0 0 0 0 0 0 0 0 0 0 0 0 0 0 0
0 0 0 0 0 0 0 0 0 0 0 0 0 0 0 0 0 0 0 0 0 0
0 0 0 0 0 0 0 0 0 0 0 0 0 0 0 0 0 0 0 0 0 0
0 0 0 0 0 0 0 0 0 0 0 0 0 0 0 0 0 0 0 0 0 0
0 0 0 -0 0 0 0 0 0 0 0 0 0 0 0 0 0 0 0 0 0 0
0 0 0 0 0 0 0 0 0 0 0 0 0 0 0 0 0 0 0 0 0 0
Wind_Speed_500mb
42 63 64 47 57 54 48 52 49 57 57 63 66 81 86 87 90 79 79 76 79 83
34 37 72 52 37 55 53 49 59 64 68 78 76 80 81 86 94 89 88 78 80 81
39 36 41 50 46 40 46 48 51 44 33 63 75 74 72 97 91 94 89 76 80 88
31 30 27 33 36 38 37 37 39 38 43 48 53 65 74 74 96 95 83 79 82 86
30 25 19 16 15 14 14 15 12 13 17 25 32 39 45 49 52 56 51 55 58 58
30 29 26 23 20 19 18 18 18 17 16 11 9 9 13 14 10 6 10 14 17 29
51 51 51 49 45 43 42 43 45 45 49 44 43 39 36 32 32 34 40 45 43 30
59 56 57 55 51 49 50 50 47 46 47 49 48 47 40 37 33 28 30 28 22 15
58 55 54 53 51 47 45 42 38 36 32 24 29 30 28 30 29 24 21 20 18 17
49 49 49 47 45 44 42 38 35 33 32 33 34 33 30 26 23 21 21 20 20 19
50 49 49 47 47 44 41 40 40 39 37 37 40 34 34 29 25 25 24 24 23 20
49 48 45 44 43 40 35 36 37 36 33 33 36 31 31 27 24 22 23 20 19 16
46 47 45 43 42 39 34 35 34 31 30 30 29 26 24 22 21 18 17 15 12 11
42 42 42 37 36 33 30 29 27 24 25 23 21 20 17 17 15 14 12 11 9 6
Wind_Direction_500mb
233 214 220 223 234 230 227 240 247 258 254 255 251 241 242 253 261 246 242 246 245 244
211 229 230 205 219 224 225 235 241 244 249 259 265 247 243 250 251 253 243 244 249 247
203 200 199 206 213 224 234 250 241 248 264 244 242 249 252 244 247 246 245 247 250 253
197 204 207 219 223 229 239 239 246 249 247 240 239 241 243 236 237 233 237 245 252 255
157 168 179 177 171 185 196 211 219 233 240 252 253 257 257 253 234 227 233 232 226 232
130 130 134 132 125 125 128 124 118 116 112 117 134 154 162 163 179 184 203 196 161 132
116 114 110 108 107 106 103 102 100 101 99 95 90 92 96 100 106 112 117 120 115 101
108 108 108 106 103 102 101 98 98 100 99 99 97 89 88 93 90 90 111 125 123 111
103 103 101 102 103 103 99 98 99 99 97 99 96 93 91 95 97 104 111 120 118 115
86 90 92 93 94 92 93 94 93 95 97 100 97 93 92 91 99 103 100 97 91 101
83 84 85 86 85 88 91 94 93 92 95 100 96 93 89 88 91 96 100 102 101 97
77 80 82 83 82 82 85 88 88 86 88 85 89 90 92 89 88 96 96 95 97 99
83 81 80 79 81 81 82 83 85 89 85 83 84 82 78 80 79 75 82 83 83 79
77 80 79 79 80 81 79 78 78 77 78 74 73 73 69 72 69 67 64 65 64 58
Wind_Speed_850mb
42 63 64 47 57 54 48 52 49 57 57 63 66 81 86 87 90 79 79 76 79 83
34 37 72 52 37 55 53 49 59 64 68 78 76 80 81 86 94 89 88 78 80 81
39 36 41 50 46 40 46 48 51 44 33 63 75 74 72 97 91 94 89 76 80 88
31 30 27 33 36 38 37 37 39 38 43 48 53 65 74 74 96 95 83 79 82 86
30 25 19 16 15 14 14 15 12 13 17 25 32 39 45 49 52 56 51 55 58 58
30 29 26 23 20 19 18 18 18 17 16 11 9 9 13 14 10 6 10 14 17 29
51 51 51 49 45 43 42 43 45 45 49 44 43 39 36 32 32 34 40 45 43 30
59 56 57 55 51 49 50 50 47 46 47 49 48 47 40 37 33 28 30 28 22 15
58 55 54 53 51 47 45 42 38 36 32 24 29 30 28 30 29 24 21 20 18 17
49 49 49 47 45 44 42 38 35 33 32 33 34 33 30 26 23 21 21 20 20 19
50 49 49 47 47 44 41 40 40 39 37 37 40 34 34 29 25 25 24 24 23 20
49 48 45 44 43 40 35 36 37 36 33 33 36 31 31 27 24 22 23 20 19 16
46 47 45 43 42 39 34 35 34 31 30 30 29 26 24 22 21 18 17 15 12 11
42 42 42 37 36 33 30 29 27 24 25 23 21 20 17 17 15 14 12 11 9 6
Wind_Direction_850mb
233 214 220 223 234 230 227 240 247 258 254 255 251 241 242 253 261 246 242 246 245 244
211 229 230 205 219 224 225 235 241 244 249 259 265 247 243 250 251 253 243 244 249 247
203 200 199 206 213 224 234 250 241 248 264 244 242 249 252 244 247 246 245 247 250 253
197 204 207 219 223 229 239 239 246 249 247 240 239 241 243 236 237 233 237 245 252 255
157 168 179 177 171 185 196 211 219 233 240 252 253 257 257 253 234 227 233 232 226 232
130 130 134 132 125 125 128 124 118 116 112 117 134 154 162 163 179 184 203 196 161 132
116 114 110 108 107 106 103 102 100 101 99 95 90 92 96 100 106 112 117 120 115 101
108 108 108 106 103 102 101 98 98 100 99 99 97 89 88 93 90 90 111 125 123 111
103 103 101 102 103 103 99 98 99 99 97 99 96 93 91 95 97 104 111 120 118 115
86 90 92 93 94 92 93 94 93 95 97 100 97 93 92 91 99 103 100 97 91 101
83 84 85 86 85 88 91 94 93 92 95 100 96 93 89 88 91 96 100 102 101 97
77 80 82 83 82 82 85 88 88 86 88 85 89 90 92 89 88 96 96 95 97 99
83 81 80 79 81 81 82 83 85 89 85 83 84 82 78 80 79 75 82 83 83 79
77 80 79 79 80 81 79 78 78 77 78 74 73 73 69 72 69 67 64 65 64 58